Terminal Aerodrome Forecast
Issued by NWS Knoxville/Tri Cities, TN

Home | Current Version | Previous Version | Text Only | Print | Product List | Glossary On
Versions: 1 2 3 4 5 6 7 8 9 10 11 12 13 14 15 16 17 18 19 20 21 22 23 24 25 26 27 28 29 30 31 32 33
000
FTUS44 KMRX 221120
TAFTYS
TAF
KTYS 221120Z 2212/2312 03003KT 5SM BR SCT050 BKN250
     FM221300 06003KT P6SM SCT050 BKN120
     FM221700 22004KT P6SM VCTS SCT045CB BKN100
     FM230100 23003KT P6SM FEW050 BKN120
     FM230800 00000KT 5SM BR BKN250=

USA.gov is the U.S. government's official web portal to all federal, state and local government web resources and services.